Time,TemperatureF,DewpointF,PressureIn,WindDirection,WindDirectionDegrees,WindSpeedMPH,WindSpeedGustMPH,Humidity,HourlyPrecipIn,Conditions,Clouds,dailyrainin,SolarRadiationWatts/m^2,SoftwareType,DateUTC
2013-05-14 00:00:00,41.1,28.3,30.02,NNE,23,0.0,0.0,60,0.00,,,0.00,0000,Weather View 32 v70,2013-05-14 04:00:00,
2013-05-14 00:04:00,41.1,28.3,30.02,NNE,23,0.0,0.0,60,0.00,,,0.00,0000,Weather View 32 v70,2013-05-14 04:04:00,
2013-05-14 00:10:00,40.8,28.0,30.02,NNE,23,0.0,0.0,60,0.00,,,0.00,0008,Weather View 32 v70,2013-05-14 04:10:00,
2013-05-14 00:15:00,40.7,28.3,30.02,NNE,23,0.0,0.0,61,0.00,,,0.00,0000,Weather View 32 v70,2013-05-14 04:15:00,
2013-05-14 00:20:00,40.5,28.5,30.02,NNW,338,0.0,0.0,62,0.00,,,0.00,0000,Weather View 32 v70,2013-05-14 04:20:00,
2013-05-14 00:25:00,40.4,28.7,30.02,NNW,338,0.0,0.0,63,0.00,,,0.00,0000,Weather View 32 v70,2013-05-14 04:25:00,
2013-05-14 00:30:00,40.0,28.4,30.02,North,0,0.0,0.0,63,0.00,,,0.00,0000,Weather View 32 v70,2013-05-14 04:30:00,
2013-05-14 00:35:00,39.8,28.6,30.02,North,0,0.0,0.0,64,0.00,,,0.00,0000,Weather View 32 v70,2013-05-14 04:35:00,
2013-05-14 00:40:00,39.6,28.8,30.02,NW,315,0.0,0.0,65,0.00,,,0.00,0000,Weather View 32 v70,2013-05-14 04:40:00,
2013-05-14 00:45:00,39.3,28.5,30.02,NNW,338,0.0,0.0,65,0.00,,,0.00,0000,Weather View 32 v70,2013-05-14 04:45:00,
2013-05-14 00:55:00,39.2,28.8,30.03,North,0,0.0,0.0,66,0.00,,,0.00,0000,Weather View 32 v70,2013-05-14 04:55:00,
2013-05-14 01:05:00,39.0,29.0,30.02,North,0,0.0,0.0,67,0.00,,,0.00,0000,Weather View 32 v70,2013-05-14 05:05:00,
2013-05-14 01:15:00,38.6,27.8,30.02,NNW,338,0.0,0.0,65,0.00,,,0.00,0000,Weather View 32 v70,2013-05-14 05:15:00,
2013-05-14 01:20:00,38.3,27.6,30.02,NNW,338,0.0,0.0,65,0.00,,,0.00,0016,Weather View 32 v70,2013-05-14 05:20:00,
2013-05-14 01:25:00,38.2,27.5,30.02,NNW,338,0.0,0.0,65,0.00,,,0.00,0000,Weather View 32 v70,2013-05-14 05:25:00,
2013-05-14 01:30:00,38.0,27.6,30.02,NNW,338,0.0,0.0,66,0.00,,,0.00,0000,Weather View 32 v70,2013-05-14 05:30:00,
2013-05-14 01:35:00,37.9,27.9,30.02,NNW,338,0.0,0.0,67,0.00,,,0.00,0000,Weather View 32 v70,2013-05-14 05:35:00,
2013-05-14 01:40:00,37.7,27.3,30.03,NNW,338,0.0,0.0,66,0.00,,,0.00,0000,Weather View 32 v70,2013-05-14 05:40:00,
2013-05-14 01:45:00,37.5,27.6,30.03,NNW,338,0.0,0.0,67,0.00,,,0.00,0016,Weather View 32 v70,2013-05-14 05:45:00,
2013-05-14 01:55:00,37.2,28.0,30.03,NNW,338,0.0,0.0,69,0.00,,,0.00,0000,Weather View 32 v70,2013-05-14 05:55:00,
2013-05-14 02:00:00,36.9,27.6,30.03,NNW,338,0.0,0.0,69,0.00,,,0.00,0000,Weather View 32 v70,2013-05-14 06:00:00,
2013-05-14 02:05:00,36.6,27.4,30.03,NNW,338,0.0,0.0,69,0.00,,,0.00,0000,Weather View 32 v70,2013-05-14 06:05:00,
2013-05-14 02:15:00,36.4,27.9,30.03,NW,315,0.0,0.0,71,0.00,,,0.00,0000,Weather View 32 v70,2013-05-14 06:15:00,
2013-05-14 02:20:00,36.3,27.8,30.03,NW,315,0.0,0.0,71,0.00,,,0.00,0000,Weather View 32 v70,2013-05-14 06:20:00,
2013-05-14 02:25:00,36.2,27.7,30.03,NW,315,0.0,0.0,71,0.00,,,0.00,0000,Weather View 32 v70,2013-05-14 06:25:00,
2013-05-14 02:35:00,36.1,27.9,30.03,NW,315,0.0,0.0,72,0.00,,,0.00,0000,Weather View 32 v70,2013-05-14 06:35:00,
2013-05-14 02:40:00,36.0,27.8,30.03,NW,315,0.0,0.0,72,0.00,,,0.00,0008,Weather View 32 v70,2013-05-14 06:40:00,
2013-05-14 02:45:00,36.0,27.8,30.03,NW,315,0.0,0.0,72,0.00,,,0.00,0000,Weather View 32 v70,2013-05-14 06:45:00,
2013-05-14 02:50:00,35.7,27.6,30.03,NW,315,0.0,0.0,72,0.00,,,0.00,0000,Weather View 32 v70,2013-05-14 06:50:00,
2013-05-14 03:00:00,35.5,27.7,30.03,NW,315,0.0,0.0,73,0.00,,,0.00,0000,Weather View 32 v70,2013-05-14 07:00:00,
2013-05-14 03:05:00,35.4,27.9,30.03,NW,315,0.0,0.0,74,0.00,,,0.00,0000,Weather View 32 v70,2013-05-14 07:05:00,
2013-05-14 03:15:00,35.3,27.8,30.02,NW,315,0.0,0.0,74,0.00,,,0.00,0000,Weather View 32 v70,2013-05-14 07:15:00,
2013-05-14 03:20:00,35.2,27.7,30.03,NW,315,0.0,0.0,74,0.00,,,0.00,0000,Weather View 32 v70,2013-05-14 07:20:00,
2013-05-14 03:25:00,35.2,27.7,30.02,NW,315,0.0,0.0,74,0.00,,,0.00,0000,Weather View 32 v70,2013-05-14 07:25:00,
2013-05-14 03:35:00,34.8,27.4,30.02,NW,315,0.0,0.0,74,0.00,,,0.00,0000,Weather View 32 v70,2013-05-14 07:35:00,
2013-05-14 03:40:00,34.7,27.3,30.03,NW,315,0.0,0.0,74,0.00,,,0.00,0008,Weather View 32 v70,2013-05-14 07:40:00,
2013-05-14 03:45:00,34.5,27.1,30.02,NW,315,0.0,0.0,74,0.00,,,0.00,0000,Weather View 32 v70,2013-05-14 07:45:00,
2013-05-14 03:50:00,34.4,27.0,30.02,NW,315,0.0,0.0,74,0.00,,,0.00,0000,Weather View 32 v70,2013-05-14 07:50:00,
2013-05-14 04:00:00,34.3,27.5,30.02,NW,315,0.0,0.0,76,0.00,,,0.00,0000,Weather View 32 v70,2013-05-14 08:00:00,
2013-05-14 04:05:00,34.2,27.4,30.03,NW,315,0.0,0.0,76,0.00,,,0.00,0000,Weather View 32 v70,2013-05-14 08:05:00,
2013-05-14 04:15:00,33.7,27.0,30.02,NW,315,0.0,0.0,76,0.00,,,0.00,0016,Weather View 32 v70,2013-05-14 08:15:00,
2013-05-14 04:25:00,33.4,26.9,30.02,NW,315,0.0,0.0,77,0.00,,,0.00,0000,Weather View 32 v70,2013-05-14 08:25:00,
2013-05-14 04:30:00,33.4,27.2,30.02,NW,315,0.0,0.0,78,0.00,,,0.00,0000,Weather View 32 v70,2013-05-14 08:30:00,
2013-05-14 04:35:00,33.3,27.1,30.02,NW,315,0.0,0.0,78,0.00,,,0.00,0008,Weather View 32 v70,2013-05-14 08:35:00,
2013-05-14 04:40:00,33.2,27.0,30.02,NW,315,0.0,0.0,78,0.00,,,0.00,0016,Weather View 32 v70,2013-05-14 08:40:00,
2013-05-14 04:50:00,33.2,27.3,30.02,NW,315,0.0,0.0,79,0.00,,,0.00,0008,Weather View 32 v70,2013-05-14 08:50:00,
2013-05-14 04:55:00,33.2,27.3,30.03,NW,315,0.0,0.0,79,0.00,,,0.00,0016,Weather View 32 v70,2013-05-14 08:55:00,
2013-05-14 05:05:00,32.9,27.1,30.03,NW,315,0.0,0.0,79,0.00,,,0.00,0000,Weather View 32 v70,2013-05-14 09:05:00,
2013-05-14 05:10:00,32.8,27.0,30.02,NW,315,0.0,0.0,79,0.00,,,0.00,0008,Weather View 32 v70,2013-05-14 09:10:00,
2013-05-14 05:15:00,32.8,27.3,30.03,NW,315,0.0,0.0,80,0.00,,,0.00,0000,Weather View 32 v70,2013-05-14 09:15:00,
2013-05-14 05:20:00,32.8,27.3,30.03,NW,315,0.0,0.0,80,0.00,,,0.00,0000,Weather View 32 v70,2013-05-14 09:20:00,
2013-05-14 05:30:00,32.9,27.4,30.03,NW,315,0.0,0.0,80,0.00,,,0.00,0016,Weather View 32 v70,2013-05-14 09:30:00,
2013-05-14 05:40:00,32.9,27.4,30.03,NW,315,0.0,0.0,80,0.00,,,0.00,0008,Weather View 32 v70,2013-05-14 09:40:00,
2013-05-14 05:45:00,33.0,27.5,30.03,NW,315,0.0,0.0,80,0.00,,,0.00,0000,Weather View 32 v70,2013-05-14 09:45:00,
2013-05-14 05:55:00,33.5,28.0,30.03,NW,315,0.0,0.0,80,0.00,,,0.00,0016,Weather View 32 v70,2013-05-14 09:55:00,
2013-05-14 06:00:00,33.9,28.1,30.03,NW,315,0.0,0.0,79,0.00,,,0.00,0040,Weather View 32 v70,2013-05-14 10:00:00,
2013-05-14 06:08:00,34.3,28.7,30.04,NW,315,0.0,0.0,80,0.00,,,0.00,0024,Weather View 32 v70,2013-05-14 10:08:00,
2013-05-14 06:15:00,35.5,30.0,30.04,NNW,338,0.0,0.0,80,0.00,,,0.00,0056,Weather View 32 v70,2013-05-14 10:15:00,
2013-05-14 06:20:00,36.1,30.5,30.04,NNW,338,0.0,0.0,80,0.00,,,0.00,0056,Weather View 32 v70,2013-05-14 10:20:00,
2013-05-14 06:25:00,36.8,30.8,30.04,NNW,338,0.0,0.0,79,0.00,,,0.00,0064,Weather View 32 v70,2013-05-14 10:25:00,
2013-05-14 06:30:00,37.5,31.6,30.04,North,0,2.0,4.0,79,0.00,,,0.00,0064,Weather View 32 v70,2013-05-14 10:30:00,
2013-05-14 06:35:00,38.1,30.9,30.05,NNW,338,0.0,4.0,75,0.00,,,0.00,0040,Weather View 32 v70,2013-05-14 10:35:00,
2013-05-14 06:40:00,38.4,30.5,30.05,North,0,0.0,4.0,73,0.00,,,0.00,0048,Weather View 32 v70,2013-05-14 10:40:00,
2013-05-14 06:45:00,38.8,30.5,30.05,NNW,338,0.0,4.0,72,0.00,,,0.00,0040,Weather View 32 v70,2013-05-14 10:45:00,
2013-05-14 06:50:00,38.8,29.8,30.05,NNW,338,0.0,4.0,70,0.00,,,0.00,0040,Weather View 32 v70,2013-05-14 10:50:00,
2013-05-14 07:00:00,39.1,29.8,30.05,NW,315,0.0,4.0,69,0.00,,,0.00,0096,Weather View 32 v70,2013-05-14 11:00:00,
2013-05-14 07:08:00,39.5,30.1,30.05,NNW,338,0.0,4.0,69,0.00,,,0.00,0080,Weather View 32 v70,2013-05-14 11:08:00,
2013-05-14 07:15:00,40.6,30.5,30.05,WNW,293,0.0,4.0,67,0.00,,,0.00,0136,Weather View 32 v70,2013-05-14 11:15:00,
2013-05-14 07:20:00,41.1,30.3,30.05,WNW,293,0.0,8.0,65,0.00,,,0.00,0240,Weather View 32 v70,2013-05-14 11:20:00,
2013-05-14 07:25:00,41.9,31.0,30.05,NW,315,0.0,8.0,65,0.00,,,0.00,0184,Weather View 32 v70,2013-05-14 11:25:00,
2013-05-14 07:30:00,42.6,30.9,30.05,NNW,338,0.0,8.0,63,0.00,,,0.00,0248,Weather View 32 v70,2013-05-14 11:30:00,
2013-05-14 07:40:00,44.5,30.6,30.05,NNW,338,0.0,11.0,58,0.00,,,0.00,0296,Weather View 32 v70,2013-05-14 11:40:00,
2013-05-14 07:50:00,46.1,31.2,30.06,NW,315,2.0,11.0,56,0.00,,,0.00,0328,Weather View 32 v70,2013-05-14 11:50:00,
2013-05-14 07:55:00,47.3,31.0,30.05,ENE,68,0.0,11.0,53,0.00,,,0.00,0360,Weather View 32 v70,2013-05-14 11:55:00,
2013-05-14 08:05:00,48.8,30.9,30.05,NNE,23,0.0,11.0,50,0.00,,,0.00,0376,Weather View 32 v70,2013-05-14 12:05:00,
2013-05-14 08:10:00,49.4,29.9,30.05,North,0,0.0,11.0,47,0.00,,,0.00,0368,Weather View 32 v70,2013-05-14 12:10:00,
2013-05-14 08:15:00,49.2,29.3,30.05,WNW,293,2.0,11.0,46,0.00,,,0.00,0416,Weather View 32 v70,2013-05-14 12:15:00,
2013-05-14 08:25:00,50.3,31.3,30.05,NW,315,3.0,11.0,48,0.00,,,0.00,0408,Weather View 32 v70,2013-05-14 12:25:00,
2013-05-14 08:30:00,51.5,30.8,30.05,WNW,293,0.0,11.0,45,0.00,,,0.00,0464,Weather View 32 v70,2013-05-14 12:30:00,
2013-05-14 08:40:00,52.1,32.4,30.05,WNW,293,4.0,9.0,47,0.00,,,0.00,0480,Weather View 32 v70,2013-05-14 12:40:00,
2013-05-14 08:50:00,52.5,31.7,30.05,NNW,338,7.0,9.0,45,0.00,,,0.00,0496,Weather View 32 v70,2013-05-14 12:50:00,
2013-05-14 09:00:00,53.5,29.7,30.05,NNE,23,0.0,9.0,40,0.00,,,0.00,0544,Weather View 32 v70,2013-05-14 13:00:00,
2013-05-14 09:09:00,54.0,29.5,30.05,North,0,0.0,9.0,39,0.00,,,0.00,0552,Weather View 32 v70,2013-05-14 13:09:00,
2013-05-14 09:15:00,54.8,30.8,30.04,North,0,2.0,8.0,40,0.00,,,0.00,0560,Weather View 32 v70,2013-05-14 13:15:00,
2013-05-14 09:25:00,55.2,28.7,30.04,NW,315,0.0,8.0,36,0.00,,,0.00,0616,Weather View 32 v70,2013-05-14 13:25:00,
2013-05-14 09:30:00,55.9,29.9,30.04,North,0,3.0,7.0,37,0.00,,,0.00,0640,Weather View 32 v70,2013-05-14 13:30:00,
2013-05-14 09:40:00,54.9,27.0,30.04,NNW,338,0.0,9.0,34,0.00,,,0.00,0616,Weather View 32 v70,2013-05-14 13:40:00,
2013-05-14 09:45:00,55.7,28.4,30.04,East,90,0.0,9.0,35,0.00,,,0.00,0136,Weather View 32 v70,2013-05-14 13:45:00,
2013-05-14 09:50:00,54.9,27.7,30.04,NNW,338,0.0,9.0,35,0.00,,,0.00,0648,Weather View 32 v70,2013-05-14 13:50:00,
2013-05-14 09:55:00,54.9,28.4,30.04,North,0,0.0,9.0,36,0.00,,,0.00,0816,Weather View 32 v70,2013-05-14 13:55:00,
2013-05-14 10:00:00,56.0,30.0,30.04,NNE,23,4.0,9.0,37,0.00,,,0.00,0896,Weather View 32 v70,2013-05-14 14:00:00,
2013-05-14 10:05:00,55.3,25.1,30.04,West,270,2.0,9.0,31,0.00,,,0.00,0216,Weather View 32 v70,2013-05-14 14:05:00,
2013-05-14 10:15:00,54.0,26.2,30.04,East,90,2.0,9.0,34,0.00,,,0.00,0216,Weather View 32 v70,2013-05-14 14:15:00,
2013-05-14 10:20:00,53.7,26.0,30.04,NNW,338,0.0,9.0,34,0.00,,,0.00,0304,Weather View 32 v70,2013-05-14 14:20:00,
2013-05-14 10:25:00,54.0,27.6,30.04,North,0,0.0,9.0,36,0.00,,,0.00,0840,Weather View 32 v70,2013-05-14 14:25:00,
2013-05-14 10:30:00,54.0,26.2,30.04,NW,315,0.0,9.0,34,0.00,,,0.00,0168,Weather View 32 v70,2013-05-14 14:30:00,
2013-05-14 10:35:00,53.4,27.1,30.04,North,0,0.0,9.0,36,0.00,,,0.00,0200,Weather View 32 v70,2013-05-14 14:35:00,
2013-05-14 10:40:00,53.2,26.9,30.04,WNW,293,0.0,9.0,36,0.00,,,0.00,0256,Weather View 32 v70,2013-05-14 14:40:00,
2013-05-14 10:50:00,53.9,27.5,30.04,NE,45,0.0,9.0,36,0.00,,,0.00,0648,Weather View 32 v70,2013-05-14 14:50:00,
2013-05-14 10:55:00,54.2,27.1,30.04,NNW,338,0.0,9.0,35,0.00,,,0.00,0328,Weather View 32 v70,2013-05-14 14:55:00,
2013-05-14 11:05:00,54.0,27.6,30.04,NNW,338,0.0,4.0,36,0.00,,,0.00,0392,Weather View 32 v70,2013-05-14 15:05:00,
2013-05-14 11:10:00,54.8,28.3,30.04,NNW,338,2.0,4.0,36,0.00,,,0.00,0856,Weather View 32 v70,2013-05-14 15:10:00,
2013-05-14 11:20:00,55.7,26.2,30.04,NW,315,0.0,4.0,32,0.00,,,0.00,0424,Weather View 32 v70,2013-05-14 15:20:00,
2013-05-14 11:25:00,55.7,25.4,30.04,NNW,338,0.0,6.0,31,0.00,,,0.00,0896,Weather View 32 v70,2013-05-14 15:25:00,
2013-05-14 11:30:00,56.6,29.2,30.04,NNE,23,0.0,9.0,35,0.00,,,0.00,0368,Weather View 32 v70,2013-05-14 15:30:00,
2013-05-14 11:35:00,55.7,25.4,30.04,WNW,293,0.0,9.0,31,0.00,,,0.00,0216,Weather View 32 v70,2013-05-14 15:35:00,
2013-05-14 11:40:00,54.6,24.5,30.04,NW,315,0.0,9.0,31,0.00,,,0.00,0152,Weather View 32 v70,2013-05-14 15:40:00,
2013-05-14 11:50:00,54.0,26.2,30.05,NNW,338,0.0,9.0,34,0.00,,,0.00,0136,Weather View 32 v70,2013-05-14 15:50:00,
2013-05-14 11:55:00,53.7,27.4,30.05,North,0,0.0,9.0,36,0.00,,,0.00,0240,Weather View 32 v70,2013-05-14 15:55:00,
2013-05-14 12:00:00,53.9,26.8,30.05,NNW,338,1.0,9.0,35,0.00,,,0.00,0336,Weather View 32 v70,2013-05-14 16:00:00,
2013-05-14 12:10:00,54.8,27.6,30.05,NE,45,0.0,9.0,35,0.00,,,0.00,0344,Weather View 32 v70,2013-05-14 16:10:00,
2013-05-14 12:15:00,54.8,28.3,30.04,North,0,0.0,9.0,36,0.00,,,0.00,0280,Weather View 32 v70,2013-05-14 16:15:00,
2013-05-14 12:25:00,54.4,27.3,30.05,NNE,23,0.0,9.0,35,0.00,,,0.00,0288,Weather View 32 v70,2013-05-14 16:25:00,
2013-05-14 12:35:00,54.4,26.6,30.04,East,90,0.0,6.0,34,0.00,,,0.00,0344,Weather View 32 v70,2013-05-14 16:35:00,
2013-05-14 12:45:00,54.4,26.6,30.05,West,270,0.0,6.0,34,0.00,,,0.00,0232,Weather View 32 v70,2013-05-14 16:45:00,
2013-05-14 12:50:00,54.2,29.7,30.04,SSW,203,0.0,6.0,39,0.00,,,0.00,0216,Weather View 32 v70,2013-05-14 16:50:00,
2013-05-14 12:55:00,53.6,30.4,30.04,SSW,203,0.0,6.0,41,0.00,,,0.00,0200,Weather View 32 v70,2013-05-14 16:55:00,
2013-05-14 13:05:00,53.4,31.4,30.04,ENE,68,2.0,5.0,43,0.00,,,0.00,0344,Weather View 32 v70,2013-05-14 17:05:00,
2013-05-14 13:10:00,53.5,32.1,30.04,North,0,0.0,5.0,44,0.00,,,0.00,0312,Weather View 32 v70,2013-05-14 17:10:00,
2013-05-14 13:15:00,53.5,30.4,30.04,East,90,0.0,6.0,41,0.00,,,0.00,0296,Weather View 32 v70,2013-05-14 17:15:00,
2013-05-14 13:25:00,54.1,30.8,30.04,West,270,0.0,6.0,41,0.00,,,0.00,0344,Weather View 32 v70,2013-05-14 17:25:00,
2013-05-14 13:35:00,54.8,30.2,30.04,NNW,338,0.0,6.0,39,0.00,,,0.00,0376,Weather View 32 v70,2013-05-14 17:35:00,
2013-05-14 13:40:00,54.8,30.8,30.04,SW,225,0.0,7.0,40,0.00,,,0.00,0400,Weather View 32 v70,2013-05-14 17:40:00,
2013-05-14 13:45:00,54.9,31.0,30.04,SE,135,5.0,7.0,40,0.00,,,0.00,0288,Weather View 32 v70,2013-05-14 17:45:00,
2013-05-14 13:50:00,54.4,30.6,30.04,WSW,248,0.0,7.0,40,0.00,,,0.00,0240,Weather View 32 v70,2013-05-14 17:50:00,
2013-05-14 13:55:00,54.4,29.9,30.04,NW,315,0.0,8.0,39,0.00,,,0.00,0288,Weather View 32 v70,2013-05-14 17:55:00,
2013-05-14 14:00:00,55.0,31.0,30.04,South,180,0.0,8.0,40,0.00,,,0.00,0424,Weather View 32 v70,2013-05-14 18:00:00,
2013-05-14 14:10:00,54.5,28.7,30.03,SW,225,0.0,8.0,37,0.00,,,0.00,0232,Weather View 32 v70,2013-05-14 18:10:00,
2013-05-14 14:20:00,54.5,29.4,30.03,SW,225,0.0,8.0,38,0.00,,,0.00,0144,Weather View 32 v70,2013-05-14 18:20:00,
2013-05-14 14:25:00,53.9,30.0,30.03,WSW,248,6.0,10.0,40,0.00,,,0.00,0184,Weather View 32 v70,2013-05-14 18:25:00,
2013-05-14 14:30:00,53.6,29.8,30.03,West,270,0.0,10.0,40,0.00,,,0.00,0296,Weather View 32 v70,2013-05-14 18:30:00,
2013-05-14 14:40:00,55.1,30.5,30.03,NNW,338,4.0,10.0,39,0.00,,,0.00,0280,Weather View 32 v70,2013-05-14 18:40:00,
2013-05-14 14:45:00,54.8,29.6,30.03,WSW,248,1.0,10.0,38,0.00,,,0.00,0232,Weather View 32 v70,2013-05-14 18:45:00,
2013-05-14 14:55:00,54.0,30.1,30.03,WSW,248,0.0,12.0,40,0.00,,,0.00,0208,Weather View 32 v70,2013-05-14 18:55:00,
2013-05-14 15:00:00,54.3,32.2,30.02,SW,225,2.0,12.0,43,0.00,,,0.00,0256,Weather View 32 v70,2013-05-14 19:00:00,
2013-05-14 15:10:00,53.6,29.8,30.02,South,180,0.0,12.0,40,0.00,,,0.00,0160,Weather View 32 v70,2013-05-14 19:10:00,
2013-05-14 15:20:00,53.9,30.0,30.02,WNW,293,0.0,12.0,40,0.00,,,0.00,0152,Weather View 32 v70,2013-05-14 19:20:00,
2013-05-14 15:25:00,54.1,32.0,30.01,East,90,0.0,12.0,43,0.00,,,0.00,0096,Weather View 32 v70,2013-05-14 19:25:00,
2013-05-14 15:35:00,54.2,31.0,30.00,NW,315,0.0,12.0,41,0.00,,,0.00,0120,Weather View 32 v70,2013-05-14 19:35:00,
2013-05-14 15:40:00,54.2,29.1,30.01,SW,225,2.0,12.0,38,0.00,,,0.00,0112,Weather View 32 v70,2013-05-14 19:40:00,
2013-05-14 15:45:00,54.2,30.3,30.01,West,270,2.0,12.0,40,0.00,,,0.00,0216,Weather View 32 v70,2013-05-14 19:45:00,
2013-05-14 15:55:00,54.3,29.2,30.00,NW,315,0.0,12.0,38,0.00,,,0.00,0200,Weather View 32 v70,2013-05-14 19:55:00,
2013-05-14 16:00:00,54.5,32.4,30.00,NNW,338,0.0,12.0,43,0.00,,,0.00,0224,Weather View 32 v70,2013-05-14 20:00:00,
2013-05-14 16:10:00,54.6,29.5,30.00,SE,135,0.0,12.0,38,0.00,,,0.00,0160,Weather View 32 v70,2013-05-14 20:10:00,
2013-05-14 16:15:00,54.4,29.9,29.99,NE,45,0.0,12.0,39,0.00,,,0.00,0184,Weather View 32 v70,2013-05-14 20:15:00,
2013-05-14 16:20:00,54.6,29.5,29.99,NW,315,0.0,12.0,38,0.00,,,0.00,0184,Weather View 32 v70,2013-05-14 20:20:00,
2013-05-14 16:25:00,54.9,31.6,29.99,West,270,0.0,12.0,41,0.00,,,0.00,0144,Weather View 32 v70,2013-05-14 20:25:00,
2013-05-14 16:35:00,55.0,31.0,29.99,SW,225,0.0,12.0,40,0.00,,,0.00,0152,Weather View 32 v70,2013-05-14 20:35:00,
2013-05-14 16:40:00,55.0,31.7,29.99,SW,225,0.0,12.0,41,0.00,,,0.00,0240,Weather View 32 v70,2013-05-14 20:40:00,
2013-05-14 16:45:00,55.7,31.7,29.99,SW,225,2.0,9.0,40,0.00,,,0.00,0208,Weather View 32 v70,2013-05-14 20:45:00,
2013-05-14 16:55:00,55.5,31.6,29.99,NNE,23,0.0,9.0,40,0.00,,,0.00,0136,Weather View 32 v70,2013-05-14 20:55:00,
2013-05-14 17:00:00,55.5,29.6,29.99,NW,315,0.0,9.0,37,0.00,,,0.00,0128,Weather View 32 v70,2013-05-14 21:00:00,
2013-05-14 17:05:00,55.5,32.8,29.99,NNW,338,0.0,9.0,42,0.00,,,0.00,0144,Weather View 32 v70,2013-05-14 21:05:00,
2013-05-14 17:14:00,55.8,27.8,29.99,WNW,293,0.0,9.0,34,0.00,,,0.00,0232,Weather View 32 v70,2013-05-14 21:14:00,
2013-05-14 17:20:00,56.7,27.1,29.99,WNW,293,0.0,9.0,32,0.00,,,0.00,0200,Weather View 32 v70,2013-05-14 21:20:00,
2013-05-14 17:25:00,56.9,25.7,29.99,WNW,293,3.0,9.0,30,0.00,,,0.00,0136,Weather View 32 v70,2013-05-14 21:25:00,
2013-05-14 17:35:00,55.9,25.6,29.99,WSW,248,0.0,11.0,31,0.00,,,0.00,0104,Weather View 32 v70,2013-05-14 21:35:00,
2013-05-14 17:40:00,55.5,26.1,29.99,West,270,5.0,12.0,32,0.00,,,0.00,0088,Weather View 32 v70,2013-05-14 21:40:00,
2013-05-14 17:45:00,55.4,26.0,29.99,West,270,0.0,12.0,32,0.00,,,0.00,0096,Weather View 32 v70,2013-05-14 21:45:00,
2013-05-14 17:50:00,55.4,26.0,29.99,West,270,0.0,12.0,32,0.00,,,0.00,0128,Weather View 32 v70,2013-05-14 21:50:00,
2013-05-14 18:00:00,55.4,26.7,29.99,WSW,248,3.0,12.0,33,0.00,,,0.00,0144,Weather View 32 v70,2013-05-14 22:00:00,
2013-05-14 18:10:00,55.8,28.5,29.99,SW,225,0.0,12.0,35,0.00,,,0.00,0136,Weather View 32 v70,2013-05-14 22:10:00,
2013-05-14 18:20:00,55.2,28.7,29.99,WNW,293,0.0,12.0,36,0.00,,,0.00,0064,Weather View 32 v70,2013-05-14 22:20:00,
2013-05-14 18:25:00,54.8,29.6,29.99,NNW,338,0.0,12.0,38,0.00,,,0.00,0064,Weather View 32 v70,2013-05-14 22:25:00,
2013-05-14 18:35:00,53.9,30.6,29.99,West,270,0.0,12.0,41,0.00,,,0.00,0056,Weather View 32 v70,2013-05-14 22:35:00,
2013-05-14 18:45:00,53.4,30.8,29.99,NNW,338,0.0,7.0,42,0.00,,,0.00,0032,Weather View 32 v70,2013-05-14 22:45:00,
2013-05-14 18:55:00,52.8,30.3,30.00,NW,315,0.0,7.0,42,0.00,,,0.00,0040,Weather View 32 v70,2013-05-14 22:55:00,
2013-05-14 19:05:00,52.4,30.5,30.00,NW,315,0.0,7.0,43,0.00,,,0.00,0056,Weather View 32 v70,2013-05-14 23:05:00,
2013-05-14 19:10:00,52.2,31.4,30.00,NW,315,0.0,7.0,45,0.00,,,0.00,0016,Weather View 32 v70,2013-05-14 23:10:00,
2013-05-14 19:15:00,51.8,32.2,30.00,NW,315,0.0,5.0,47,0.00,,,0.00,0016,Weather View 32 v70,2013-05-14 23:15:00,
2013-05-14 19:25:00,51.4,32.8,30.00,NW,315,0.0,5.0,49,0.00,,,0.00,0000,Weather View 32 v70,2013-05-14 23:25:00,
2013-05-14 19:35:00,50.7,32.7,30.01,NW,315,0.0,0.0,50,0.00,,,0.00,0024,Weather View 32 v70,2013-05-14 23:35:00,
2013-05-14 19:40:00,50.3,33.3,30.01,NW,315,0.0,0.0,52,0.00,,,0.00,0000,Weather View 32 v70,2013-05-14 23:40:00,
2013-05-14 19:50:00,49.2,33.3,30.02,NW,315,0.0,0.0,54,0.00,,,0.00,0000,Weather View 32 v70,2013-05-14 23:50:00,
2013-05-14 19:55:00,48.7,33.2,30.02,NW,315,0.0,0.0,55,0.00,,,0.00,0000,Weather View 32 v70,2013-05-14 23:55:00,
2013-05-14 20:05:00,48.1,33.6,30.02,NW,315,0.0,0.0,57,0.00,,,0.00,0000,Weather View 32 v70,2013-05-15 00:05:00,
2013-05-14 20:15:00,47.6,33.9,30.02,NW,315,0.0,0.0,59,0.00,,,0.00,0000,Weather View 32 v70,2013-05-15 00:15:00,
2013-05-14 20:25:00,46.8,34.0,30.03,NW,315,0.0,0.0,61,0.00,,,0.00,0000,Weather View 32 v70,2013-05-15 00:25:00,
2013-05-14 20:30:00,46.4,34.1,30.02,WNW,293,0.0,0.0,62,0.00,,,0.00,0008,Weather View 32 v70,2013-05-15 00:30:00,
2013-05-14 20:35:00,46.1,33.8,30.03,WNW,293,0.0,0.0,62,0.00,,,0.00,0008,Weather View 32 v70,2013-05-15 00:35:00,
2013-05-14 20:45:00,45.6,33.8,30.03,WNW,293,0.0,0.0,63,0.00,,,0.00,0000,Weather View 32 v70,2013-05-15 00:45:00,
2013-05-14 20:55:00,45.5,34.0,30.03,WNW,293,0.0,0.0,64,0.00,,,0.00,0000,Weather View 32 v70,2013-05-15 00:55:00,
2013-05-14 21:00:00,45.3,33.8,30.04,WNW,293,0.0,0.0,64,0.00,,,0.00,0000,Weather View 32 v70,2013-05-15 01:00:00,
2013-05-14 21:05:00,45.2,33.7,30.05,WNW,293,0.0,0.0,64,0.00,,,0.00,0000,Weather View 32 v70,2013-05-15 01:05:00,
2013-05-14 21:10:00,45.0,34.3,30.04,WNW,293,0.0,0.0,66,0.00,,,0.00,0000,Weather View 32 v70,2013-05-15 01:10:00,
2013-05-14 21:15:00,44.7,34.4,30.05,WNW,293,0.0,0.0,67,0.00,,,0.00,0016,Weather View 32 v70,2013-05-15 01:15:00,
2013-05-14 21:20:00,44.5,34.2,30.06,WNW,293,0.0,0.0,67,0.00,,,0.00,0000,Weather View 32 v70,2013-05-15 01:20:00,
2013-05-14 21:25:00,44.2,34.3,30.05,WNW,293,0.0,0.0,68,0.00,,,0.00,0008,Weather View 32 v70,2013-05-15 01:25:00,
2013-05-14 21:35:00,43.5,33.6,30.06,WNW,293,0.0,0.0,68,0.00,,,0.00,0000,Weather View 32 v70,2013-05-15 01:35:00,
2013-05-14 21:40:00,43.3,33.0,30.06,WNW,293,0.0,0.0,67,0.00,,,0.00,0000,Weather View 32 v70,2013-05-15 01:40:00,
2013-05-14 21:50:00,42.8,33.0,30.06,WNW,293,0.0,0.0,68,0.00,,,0.00,0016,Weather View 32 v70,2013-05-15 01:50:00,
2013-05-14 22:00:00,42.5,33.0,30.06,WNW,293,0.0,0.0,69,0.00,,,0.00,0000,Weather View 32 v70,2013-05-15 02:00:00,
2013-05-14 22:10:00,42.4,32.5,30.06,WNW,293,0.0,0.0,68,0.00,,,0.00,0008,Weather View 32 v70,2013-05-15 02:10:00,
2013-05-14 22:15:00,42.3,32.8,30.06,WNW,293,0.0,0.0,69,0.00,,,0.00,0000,Weather View 32 v70,2013-05-15 02:15:00,
2013-05-14 22:20:00,42.2,33.1,30.06,WNW,293,0.0,0.0,70,0.00,,,0.00,0000,Weather View 32 v70,2013-05-15 02:20:00,
2013-05-14 22:25:00,41.9,32.8,30.06,WNW,293,0.0,0.0,70,0.00,,,0.00,0008,Weather View 32 v70,2013-05-15 02:25:00,
2013-05-14 22:30:00,41.8,32.7,30.07,WNW,293,0.0,0.0,70,0.00,,,0.00,0000,Weather View 32 v70,2013-05-15 02:30:00,
2013-05-14 22:40:00,41.8,32.7,30.07,WNW,293,0.0,0.0,70,0.00,,,0.00,0000,Weather View 32 v70,2013-05-15 02:40:00,
2013-05-14 22:45:00,41.7,33.0,30.07,WNW,293,0.0,0.0,71,0.00,,,0.00,0000,Weather View 32 v70,2013-05-15 02:45:00,
2013-05-14 22:55:00,41.3,32.5,30.06,WNW,293,0.0,0.0,71,0.00,,,0.00,0000,Weather View 32 v70,2013-05-15 02:55:00,
2013-05-14 23:00:00,41.1,32.8,30.06,WNW,293,0.0,0.0,72,0.00,,,0.00,0000,Weather View 32 v70,2013-05-15 03:00:00,
2013-05-14 23:10:00,40.8,32.8,30.07,WNW,293,0.0,0.0,73,0.00,,,0.00,0000,Weather View 32 v70,2013-05-15 03:10:00,
2013-05-14 23:17:00,40.8,33.1,30.07,WNW,293,0.0,0.0,74,0.00,,,0.00,0016,Weather View 32 v70,2013-05-15 03:17:00,
2013-05-14 23:25:00,40.8,33.5,30.07,WNW,293,0.0,0.0,75,0.00,,,0.00,0000,Weather View 32 v70,2013-05-15 03:25:00,
2013-05-14 23:30:00,40.7,33.7,30.07,WNW,293,0.0,0.0,76,0.00,,,0.00,0000,Weather View 32 v70,2013-05-15 03:30:00,
2013-05-14 23:40:00,40.4,33.4,30.07,WNW,293,0.0,0.0,76,0.00,,,0.00,0000,Weather View 32 v70,2013-05-15 03:40:00,
2013-05-14 23:45:00,40.4,33.4,30.07,WNW,293,0.0,0.0,76,0.00,,,0.00,0000,Weather View 32 v70,2013-05-15 03:45:00,
2013-05-14 23:55:00,40.2,33.3,30.07,WNW,293,0.0,0.0,76,0.00,,,0.00,0000,Weather View 32 v70,2013-05-15 03:55:00,